| time (UTC) | temp F | wind direction | speed MPH | gust MPH | rain 1hr in | rain 24hr in | rain mn in | humidity % | barometer mb |
| 20260906201603 | 74 | 28 | 7.0 | 17.0 | 0.00 | 0.00 | 0.00 | 70 | 1016.5 |
| 20260906201053 | 74 | 356 | 8.0 | 17.0 | 0.00 | 0.00 | 0.00 | 70 | 1016.5 |
| 20260906200552 | 74 | 1 | 6.0 | 15.0 | 0.00 | 0.00 | 0.00 | 70 | 1016.5 |
| 20260906200055 | 74 | 20 | 7.0 | 15.0 | 0.00 | 0.00 | 0.00 | 71 | 1016.4 |
| 20260906195549 | 74 | 44 | 8.0 | 15.0 | 0.00 | 0.00 | 0.00 | 71 | 1016.4 |
| 20260906195049 | 74 | 16 | 10.0 | 15.0 | 0.00 | 0.00 | 0.00 | 72 | 1016.4 |
| 20260906194550 | 74 | 339 | 8.0 | 16.0 | 0.00 | 0.00 | 0.00 | 71 | 1016.4 |
| 20260906194049 | 73 | 6 | 10.0 | 17.0 | 0.00 | 0.00 | 0.00 | 72 | 1016.5 |
| 20260906193549 | 73 | 359 | 8.0 | 17.0 | 0.00 | 0.00 | 0.00 | 72 | 1016.6 |
| 20260906193049 | 72 | 47 | 9.0 | 14.0 | 0.00 | 0.00 | 0.00 | 71 | 1016.6 |
| 20260906192549 | 73 | 359 | 7.0 | 14.0 | 0.00 | 0.00 | 0.00 | 71 | 1016.7 |
| 20260906192049 | 73 | 359 | 7.0 | 16.0 | 0.00 | 0.00 | 0.00 | 70 | 1016.7 |
| 20260906191549 | 74 | 350 | 10.0 | 21.0 | 0.00 | 0.00 | 0.00 | 70 | 1016.8 |
| 20260906191048 | 74 | 30 | 7.0 | 21.0 | 0.00 | 0.00 | 0.00 | 72 | 1016.7 |
| 20260906190548 | 74 | 356 | 8.0 | 18.0 | 0.00 | 0.00 | 0.00 | 72 | 1016.8 |
| 20260906190123 | 74 | 346 | 9.0 | 20.0 | 0.00 | 0.00 | 0.00 | 72 | 1016.9 |
| 20260906185546 | 74 | 343 | 11.0 | 20.0 | 0.00 | 0.00 | 0.00 | 72 | 1016.9 |
| 20260906185046 | 73 | 349 | 6.0 | 16.0 | 0.00 | 0.00 | 0.00 | 73 | 1016.9 |
| 20260906184548 | 73 | 346 | 7.0 | 15.0 | 0.00 | 0.00 | 0.00 | 73 | 1016.9 |
| 20260906184045 | 72 | 27 | 8.0 | 15.0 | 0.00 | 0.00 | 0.00 | 72 | 1017.0 |
| 20260906183545 | 72 | 13 | 9.0 | 14.0 | 0.00 | 0.00 | 0.00 | 72 | 1017.0 |
| 20260906183056 | 72 | 6 | 6.0 | 13.0 | 0.00 | 0.00 | 0.00 | 72 | 1017.0 |
| 20260906182543 | 72 | 22 | 4.0 | 14.0 | 0.00 | 0.00 | 0.00 | 72 | 1017.0 |
| 20260906182043 | 72 | 337 | 5.0 | 16.0 | 0.00 | 0.00 | 0.00 | 72 | 1017.0 |
| 20260906181544 | 72 | 1 | 9.0 | 16.0 | 0.00 | 0.00 | 0.00 | 71 | 1017.1 |
| 20260906181043 | 73 | 335 | 8.0 | 15.0 | 0.00 | 0.00 | 0.00 | 71 | 1017.2 |
| 20260906180614 | 72 | 359 | 7.0 | 12.0 | 0.00 | 0.00 | 0.00 | 72 | 1017.2 |
| 20260906180041 | 72 | 20 | 7.0 | 18.0 | 0.00 | 0.00 | 0.00 | 72 | 1017.2 |
| 20260906175541 | 72 | 27 | 9.0 | 20.0 | 0.00 | 0.00 | 0.00 | 72 | 1017.2 |
| 20260906175040 | 73 | 23 | 9.0 | 20.0 | 0.00 | 0.00 | 0.00 | 72 | 1017.2 |
| 20260906174540 | 73 | 8 | 8.0 | 17.0 | 0.00 | 0.00 | 0.00 | 71 | 1017.1 |
| 20260906174039 | 73 | 15 | 9.0 | 17.0 | 0.00 | 0.00 | 0.00 | 70 | 1017.1 |
| 20260906173539 | 73 | 156 | 7.0 | 16.0 | 0.00 | 0.00 | 0.00 | 70 | 1017.1 |
| 20260906173046 | 74 | 344 | 7.0 | 12.0 | 0.00 | 0.00 | 0.00 | 69 | 1017.1 |
| 20260906172539 | 74 | 23 | 6.0 | 12.0 | 0.00 | 0.00 | 0.00 | 68 | 1017.2 |
| 20260906172038 | 74 | 8 | 7.0 | 13.0 | 0.00 | 0.00 | 0.00 | 65 | 1017.2 |
| 20260906171537 | 74 | 22 | 5.0 | 13.0 | 0.00 | 0.00 | 0.00 | 64 | 1017.2 |
| 20260906171037 | 74 | 333 | 5.0 | 13.0 | 0.00 | 0.00 | 0.00 | 62 | 1017.2 |
| 20260906170636 | 74 | 339 | 6.0 | 13.0 | 0.00 | 0.00 | 0.00 | 62 | 1017.2 |
| 20260906170135 | 74 | 49 | 4.0 | 12.0 | 0.00 | 0.00 | 0.00 | 63 | 1017.2 |
| 20260906165534 | 74 | 3 | 6.0 | 12.0 | 0.00 | 0.00 | 0.00 | 62 | 1017.2 |
| 20260906165033 | 75 | 348 | 3.0 | 14.0 | 0.00 | 0.00 | 0.00 | 61 | 1017.2 |
| 20260906164533 | 75 | 20 | 5.0 | 14.0 | 0.00 | 0.00 | 0.00 | 62 | 1017.3 |
| 20260906164032 | 75 | 15 | 6.0 | 16.0 | 0.00 | 0.00 | 0.00 | 62 | 1017.2 |
| 20260906163531 | 75 | 15 | 9.0 | 16.0 | 0.00 | 0.00 | 0.00 | 61 | 1017.2 |
| 20260906163030 | 75 | 18 | 3.0 | 12.0 | 0.00 | 0.00 | 0.00 | 63 | 1017.2 |
| 20260906162530 | 74 | 112 | 3.0 | 12.0 | 0.00 | 0.00 | 0.00 | 65 | 1017.2 |
| 20260906162028 | 73 | 81 | 4.0 | 14.0 | 0.00 | 0.00 | 0.00 | 64 | 1017.4 |
| 20260906161530 | 73 | 349 | 5.0 | 14.0 | 0.00 | 0.00 | 0.00 | 64 | 1017.3 |
| 20260906161027 | 72 | 62 | 4.0 | 12.0 | 0.00 | 0.00 | 0.00 | 66 | 1017.4 |
| 20260906160527 | 72 | 55 | 4.0 | 8.0 | 0.00 | 0.00 | 0.00 | 66 | 1017.4 |
| 20260906160028 | 72 | 356 | 3.0 | 9.0 | 0.00 | 0.00 | 0.00 | 65 | 1017.5 |
| 20260906155530 | 72 | 23 | 4.0 | 10.0 | 0.00 | 0.00 | 0.00 | 65 | 1017.5 |
| 20260906155025 | 73 | 340 | 3.0 | 14.0 | 0.00 | 0.00 | 0.00 | 65 | 1017.5 |
| 20260906154525 | 73 | 346 | 7.0 | 14.0 | 0.00 | 0.00 | 0.00 | 63 | 1017.5 |
| 20260906154023 | 74 | 67 | 6.0 | 14.0 | 0.00 | 0.00 | 0.00 | 63 | 1017.5 |
| 20260906153522 | 74 | 13 | 7.0 | 15.0 | 0.00 | 0.00 | 0.00 | 63 | 1017.4 |
| 20260906153027 | 74 | 35 | 7.0 | 15.0 | 0.00 | 0.00 | 0.00 | 66 | 1017.4 |
| 20260906152521 | 74 | 326 | 5.0 | 13.0 | 0.00 | 0.00 | 0.00 | 66 | 1017.4 |
| 20260906152021 | 73 | 89 | 7.0 | 13.0 | 0.00 | 0.00 | 0.00 | 67 | 1017.5 |
| 20260906151519 | 73 | 105 | 8.0 | 14.0 | 0.00 | 0.00 | 0.00 | 66 | 1017.5 |
| 20260906151018 | 72 | 23 | 4.0 | 14.0 | 0.00 | 0.00 | 0.00 | 67 | 1017.5 |
| 20260906150516 | 72 | 356 | 7.0 | 14.0 | 0.00 | 0.00 | 0.00 | 69 | 1017.6 |
| 20260906150018 | 72 | 27 | 5.0 | 11.0 | 0.00 | 0.00 | 0.00 | 68 | 1017.6 |
| 20260906145615 | 71 | 25 | 4.0 | 11.0 | 0.00 | 0.00 | 0.00 | 69 | 1017.5 |
| 20260906145017 | 71 | 79 | 3.0 | 11.0 | 0.00 | 0.00 | 0.00 | 70 | 1017.5 |
| 20260906144516 | 71 | 23 | 4.0 | 11.0 | 0.00 | 0.00 | 0.00 | 71 | 1017.4 |
| 20260906144009 | 71 | 49 | 5.0 | 17.0 | 0.00 | 0.00 | 0.00 | 72 | 1017.4 |
| 20260906143510 | 70 | 120 | 6.0 | 17.0 | 0.00 | 0.00 | 0.00 | 72 | 1017.3 |
| 20260906143014 | 70 | 71 | 5.0 | 12.0 | 0.00 | 0.00 | 0.00 | 74 | 1017.3 |
| 20260906142505 | 69 | 22 | 5.0 | 11.0 | 0.00 | 0.00 | 0.00 | 75 | 1017.3 |
| 20260906142004 | 69 | 27 | 4.0 | 11.0 | 0.00 | 0.00 | 0.00 | 76 | 1017.4 |
| 20260906141503 | 68 | 10 | 5.0 | 12.0 | 0.00 | 0.00 | 0.00 | 77 | 1017.4 |
| 20260906141002 | 68 | 72 | 4.0 | 15.0 | 0.00 | 0.00 | 0.00 | 78 | 1017.2 |
| 20260906140601 | 68 | 97 | 4.0 | 15.0 | 0.00 | 0.00 | 0.00 | 79 | 1017.2 |
| 20260906140100 | 68 | 120 | 8.0 | 15.0 | 0.00 | 0.00 | 0.00 | 80 | 1017.3 |
| 20260906135558 | 68 | 334 | 4.0 | 11.0 | 0.00 | 0.00 | 0.00 | 80 | 1017.2 |
| 20260906135057 | 67 | 3 | 4.0 | 10.0 | 0.00 | 0.00 | 0.00 | 81 | 1017.1 |
| 20260906134556 | 67 | 20 | 4.0 | 12.0 | 0.00 | 0.00 | 0.00 | 83 | 1017.2 |
| 20260906134057 | 67 | 102 | 6.0 | 12.0 | 0.00 | 0.00 | 0.00 | 84 | 1017.1 |
| 20260906133555 | 67 | 30 | 3.0 | 11.0 | 0.00 | 0.00 | 0.00 | 85 | 1017.0 |
| 20260906133109 | 66 | 347 | 3.0 | 13.0 | 0.00 | 0.00 | 0.00 | 85 | 1017.0 |
| 20260906132552 | 66 | 76 | 4.0 | 13.0 | 0.00 | 0.00 | 0.00 | 86 | 1017.0 |
| 20260906132051 | 66 | 84 | 5.0 | 8.0 | 0.00 | 0.00 | 0.00 | 87 | 1017.1 |
| 20260906131558 | 65 | 1 | 3.0 | 7.0 | 0.00 | 0.00 | 0.00 | 87 | 1017.1 |
| 20260906131048 | 65 | 37 | 3.0 | 6.0 | 0.00 | 0.00 | 0.00 | 88 | 1017.1 |
| 20260906130547 | 64 | 30 | 3.0 | 7.0 | 0.00 | 0.00 | 0.00 | 89 | 1017.0 |
| 20260906130059 | 64 | 125 | 2.0 | 7.0 | 0.00 | 0.00 | 0.00 | 89 | 1016.9 |
| 20260906125546 | 63 | 8 | 3.0 | 7.0 | 0.00 | 0.00 | 0.00 | 90 | 1016.9 |
| 20260906125042 | 63 | 356 | 3.0 | 7.0 | 0.00 | 0.00 | 0.00 | 90 | 1016.9 |
| 20260906124544 | 63 | 108 | 2.0 | 5.0 | 0.00 | 0.00 | 0.00 | 90 | 1016.8 |
| 20260906124041 | 62 | 15 | 2.0 | 5.0 | 0.00 | 0.00 | 0.00 | 90 | 1016.7 |
| 20260906123539 | 62 | 84 | 3.0 | 5.0 | 0.00 | 0.00 | 0.00 | 90 | 1016.7 |
| 20260906123042 | 61 | 93 | 3.0 | 5.0 | 0.00 | 0.00 | 0.00 | 90 | 1016.6 |
| 20260906122540 | 61 | 103 | 3.0 | 5.0 | 0.00 | 0.00 | 0.00 | 90 | 1016.6 |
| 20260906122136 | 60 | 100 | 2.0 | 4.0 | 0.00 | 0.00 | 0.00 | 90 | 1016.6 |
| 20260906121536 | 59 | 108 | 2.0 | 4.0 | 0.00 | 0.00 | 0.00 | 90 | 1016.6 |
| 20260906121039 | 59 | 103 | 2.0 | 3.0 | 0.00 | 0.00 | 0.00 | 89 | 1016.6 |
| 20260906120536 | 58 | 41 | 0.0 | 2.0 | 0.00 | 0.00 | 0.00 | 89 | 1016.6 |
| 20260906120043 | 58 | 173 | 0.0 | 2.0 | 0.00 | 0.00 | 0.00 | 89 | 1016.5 |
| 20260906115533 | 57 | 156 | 0.0 | 2.0 | 0.00 | 0.00 | 0.00 | 89 | 1016.5 |
| 20260906115033 | 57 | 84 | 0.0 | 2.0 | 0.00 | 0.00 | 0.00 | 88 | 1016.5 |
| 20260906114533 | 57 | 218 | 0.0 | 2.0 | 0.00 | 0.00 | 0.00 | 88 | 1016.4 |
| 20260906114032 | 57 | 103 | 0.0 | 2.0 | 0.00 | 0.00 | 0.00 | 88 | 1016.3 |
| 20260906113530 | 57 | 84 | 0.0 | 2.0 | 0.00 | 0.00 | 0.00 | 88 | 1016.2 |
| 20260906113037 | 57 | 130 | 0.0 | 2.0 | 0.00 | 0.00 | 0.00 | 88 | 1016.1 |
| 20260906112527 | 57 | 218 | 0.0 | 2.0 | 0.00 | 0.00 | 0.00 | 88 | 1016.1 |
| 20260906112026 | 57 | 41 | 0.0 | 2.0 | 0.00 | 0.00 | 0.00 | 88 | 1016.0 |
| 20260906111525 | 57 | 173 | 0.0 | 2.0 | 0.00 | 0.00 | 0.00 | 88 | 1015.8 |
| 20260906111026 | 57 | 173 | 1.0 | 2.0 | 0.00 | 0.00 | 0.00 | 88 | 1015.8 |
| 20260906110524 | 57 | 218 | 0.0 | 2.0 | 0.00 | 0.00 | 0.00 | 88 | 1015.8 |
| 20260906110024 | 57 | 173 | 0.0 | 2.0 | 0.00 | 0.00 | 0.00 | 88 | 1015.7 |
| 20260906105526 | 57 | 218 | 1.0 | 2.0 | 0.00 | 0.00 | 0.00 | 88 | 1015.7 |
| 20260906105023 | 57 | 41 | 0.0 | 2.0 | 0.00 | 0.00 | 0.00 | 88 | 1015.7 |
| 20260906104522 | 57 | 130 | 0.0 | 2.0 | 0.00 | 0.00 | 0.00 | 87 | 1015.7 |
| 20260906104022 | 57 | 192 | 1.0 | 2.0 | 0.00 | 0.00 | 0.00 | 87 | 1015.7 |
| 20260906103523 | 57 | 229 | 0.0 | 2.0 | 0.00 | 0.00 | 0.00 | 87 | 1015.7 |
| 20260906103022 | 57 | 173 | 0.0 | 2.0 | 0.00 | 0.00 | 0.00 | 87 | 1015.7 |
| 20260906102523 | 57 | 236 | 0.0 | 2.0 | 0.00 | 0.00 | 0.00 | 87 | 1015.7 |
| 20260906102023 | 57 | 218 | 0.0 | 2.0 | 0.00 | 0.00 | 0.00 | 87 | 1015.7 |
| 20260906101522 | 57 | 208 | 1.0 | 2.0 | 0.00 | 0.00 | 0.00 | 87 | 1015.7 |
| 20260906101020 | 57 | 229 | 0.0 | 2.0 | 0.00 | 0.00 | 0.00 | 87 | 1015.7 |
| 20260906100525 | 57 | 264 | 0.0 | 2.0 | 0.00 | 0.00 | 0.00 | 87 | 1015.6 |
| 20260906100028 | 57 | 218 | 1.0 | 2.0 | 0.00 | 0.00 | 0.00 | 87 | 1015.6 |
| 20260906095518 | 57 | 245 | 1.0 | 2.0 | 0.00 | 0.00 | 0.00 | 87 | 1015.6 |
| 20260906095018 | 57 | 229 | 1.0 | 2.0 | 0.00 | 0.00 | 0.00 | 87 | 1015.5 |
| 20260906094517 | 57 | 218 | 1.0 | 2.0 | 0.00 | 0.00 | 0.00 | 87 | 1015.5 |
| 20260906094017 | 57 | 236 | 0.0 | 2.0 | 0.00 | 0.00 | 0.00 | 87 | 1015.5 |
| 20260906093518 | 57 | 173 | 0.0 | 2.0 | 0.00 | 0.00 | 0.00 | 87 | 1015.5 |
| 20260906093039 | 57 | 112 | 0.0 | 3.0 | 0.00 | 0.00 | 0.00 | 87 | 1015.6 |
| 20260906092516 | 57 | 173 | 1.0 | 3.0 | 0.00 | 0.00 | 0.00 | 87 | 1015.6 |
| 20260906092016 | 57 | 173 | 1.0 | 2.0 | 0.00 | 0.00 | 0.00 | 87 | 1015.5 |
| 20260906091515 | 57 | 173 | 1.0 | 2.0 | 0.00 | 0.00 | 0.00 | 86 | 1015.4 |
| 20260906091016 | 57 | 192 | 0.0 | 3.0 | 0.00 | 0.00 | 0.00 | 86 | 1015.3 |
| 20260906090514 | 57 | 208 | 1.0 | 3.0 | 0.00 | 0.00 | 0.00 | 86 | 1015.4 |
| 20260906090019 | 57 | 208 | 0.0 | 2.0 | 0.00 | 0.00 | 0.00 | 86 | 1015.4 |
| 20260906085514 | 57 | 201 | 0.0 | 2.0 | 0.00 | 0.00 | 0.00 | 86 | 1015.4 |
| 20260906085014 | 57 | 208 | 1.0 | 2.0 | 0.00 | 0.00 | 0.00 | 86 | 1015.4 |
| 20260906084518 | 57 | 201 | 1.0 | 3.0 | 0.00 | 0.00 | 0.00 | 86 | 1015.4 |
| 20260906084012 | 57 | 201 | 1.0 | 3.0 | 0.00 | 0.00 | 0.00 | 86 | 1015.3 |
| 20260906083611 | 57 | 208 | 1.0 | 4.0 | 0.00 | 0.00 | 0.00 | 86 | 1015.3 |
| 20260906083017 | 57 | 201 | 2.0 | 4.0 | 0.00 | 0.00 | 0.00 | 86 | 1015.2 |
| 20260906082509 | 57 | 205 | 2.0 | 3.0 | 0.00 | 0.00 | 0.00 | 85 | 1015.1 |
| 20260906082010 | 57 | 208 | 0.0 | 2.0 | 0.00 | 0.00 | 0.00 | 85 | 1015.0 |
| 20260906081509 | 57 | 130 | 0.0 | 2.0 | 0.00 | 0.00 | 0.00 | 85 | 1015.0 |
| 20260906081007 | 58 | 309 | 0.0 | 2.0 | 0.00 | 0.00 | 0.00 | 85 | 1015.1 |
| 20260906080506 | 58 | 264 | 0.0 | 2.0 | 0.00 | 0.00 | 0.00 | 85 | 1015.0 |
| 20260906080007 | 58 | 41 | 0.0 | 2.0 | 0.00 | 0.00 | 0.00 | 85 | 1014.9 |
| 20260906075505 | 58 | 130 | 0.0 | 2.0 | 0.00 | 0.00 | 0.00 | 85 | 1015.0 |
| 20260906075005 | 58 | 147 | 0.0 | 2.0 | 0.00 | 0.00 | 0.00 | 85 | 1014.9 |
| 20260906074511 | 58 | 112 | 0.0 | 2.0 | 0.00 | 0.00 | 0.00 | 85 | 1014.8 |
| 20260906074003 | 58 | 192 | 0.0 | 2.0 | 0.00 | 0.00 | 0.00 | 85 | 1014.8 |
| 20260906073504 | 58 | 41 | 0.0 | 2.0 | 0.00 | 0.00 | 0.00 | 85 | 1014.8 |
| 20260906073003 | 58 | 112 | 0.0 | 2.0 | 0.00 | 0.00 | 0.00 | 85 | 1014.8 |
| 20260906072502 | 58 | 41 | 1.0 | 2.0 | 0.00 | 0.00 | 0.00 | 85 | 1014.7 |
| 20260906072001 | 58 | 236 | 0.0 | 2.0 | 0.00 | 0.00 | 0.00 | 84 | 1014.8 |
| 20260906071502 | 58 | 147 | 0.0 | 2.0 | 0.00 | 0.00 | 0.00 | 84 | 1014.8 |
| 20260906071001 | 58 | 130 | 0.0 | 2.0 | 0.00 | 0.00 | 0.00 | 84 | 1014.7 |
| 20260906070604 | 58 | 41 | 0.0 | 2.0 | 0.00 | 0.00 | 0.00 | 84 | 1014.7 |
| 20260906070100 | 59 | 156 | 0.0 | 2.0 | 0.00 | 0.00 | 0.00 | 84 | 1014.7 |
| 20260906065600 | 59 | 218 | 0.0 | 1.0 | 0.00 | 0.00 | 0.00 | 84 | 1014.8 |
| 20260906065057 | 59 | 264 | 0.0 | 2.0 | 0.00 | 0.00 | 0.00 | 84 | 1014.8 |
| 20260906064557 | 59 | 245 | 1.0 | 3.0 | 0.00 | 0.00 | 0.00 | 84 | 1014.9 |
| 20260906064057 | 59 | 192 | 1.0 | 3.0 | 0.00 | 0.00 | 0.00 | 84 | 1014.9 |
| 20260906063556 | 59 | 201 | 0.0 | 2.0 | 0.00 | 0.00 | 0.00 | 83 | 1014.8 |
| 20260906063057 | 59 | 130 | 0.0 | 2.0 | 0.00 | 0.00 | 0.00 | 83 | 1014.7 |
| 20260906062556 | 59 | 130 | 0.0 | 2.0 | 0.00 | 0.00 | 0.00 | 83 | 1014.7 |
| 20260906062054 | 59 | 201 | 0.0 | 2.0 | 0.00 | 0.00 | 0.00 | 83 | 1014.7 |
| 20260906061603 | 59 | 218 | 1.0 | 2.0 | 0.00 | 0.00 | 0.00 | 83 | 1014.6 |
| 20260906061053 | 60 | 201 | 0.0 | 3.0 | 0.00 | 0.00 | 0.00 | 83 | 1014.7 |
| 20260906060556 | 60 | 236 | 0.0 | 3.0 | 0.00 | 0.00 | 0.00 | 83 | 1014.7 |
| 20260906060053 | 60 | 218 | 1.0 | 2.0 | 0.00 | 0.00 | 0.00 | 83 | 1014.7 |
| 20260906055551 | 60 | 213 | 1.0 | 3.0 | 0.00 | 0.00 | 0.00 | 83 | 1014.7 |
| 20260906055055 | 60 | 248 | 1.0 | 3.0 | 0.00 | 0.00 | 0.00 | 83 | 1014.6 |
| 20260906054556 | 60 | 290 | 1.0 | 2.0 | 0.00 | 0.00 | 0.00 | 83 | 1014.8 |
| 20260906054050 | 60 | 245 | 1.0 | 2.0 | 0.00 | 0.00 | 0.00 | 83 | 1014.6 |
| 20260906053550 | 60 | 119 | 1.0 | 2.0 | 0.00 | 0.00 | 0.00 | 83 | 1014.5 |
| 20260906053105 | 60 | 140 | 1.0 | 2.0 | 0.00 | 0.00 | 0.00 | 82 | 1014.5 |
| 20260906052549 | 60 | 173 | 0.0 | 2.0 | 0.00 | 0.00 | 0.00 | 83 | 1014.5 |
| 20260906052049 | 60 | 173 | 0.0 | 3.0 | 0.00 | 0.00 | 0.00 | 82 | 1014.5 |
| 20260906051548 | 60 | 84 | 0.0 | 3.0 | 0.00 | 0.00 | 0.00 | 82 | 1014.5 |
| 20260906051048 | 60 | 130 | 0.0 | 5.0 | 0.00 | 0.00 | 0.00 | 82 | 1014.6 |
| 20260906050547 | 60 | 10 | 1.0 | 4.0 | 0.00 | 0.00 | 0.00 | 82 | 1014.6 |
| 20260906050047 | 60 | 95 | 1.0 | 4.0 | 0.00 | 0.00 | 0.00 | 82 | 1014.7 |
| 20260906045551 | 60 | 84 | 1.0 | 4.0 | 0.00 | 0.00 | 0.00 | 82 | 1014.7 |
| 20260906045045 | 60 | 84 | 2.0 | 4.0 | 0.00 | 0.00 | 0.00 | 82 | 1014.6 |
| 20260906044545 | 60 | 130 | 1.0 | 4.0 | 0.00 | 0.00 | 0.00 | 81 | 1014.6 |
| 20260906044045 | 60 | 41 | 1.0 | 5.0 | 0.00 | 0.00 | 0.00 | 81 | 1014.6 |
| 20260906043544 | 61 | 84 | 2.0 | 5.0 | 0.00 | 0.00 | 0.00 | 81 | 1014.6 |
| 20260906043044 | 61 | 91 | 1.0 | 5.0 | 0.00 | 0.00 | 0.00 | 81 | 1014.7 |
| 20260906042544 | 61 | 84 | 2.0 | 5.0 | 0.00 | 0.00 | 0.00 | 81 | 1014.7 |
| 20260906042043 | 61 | 84 | 1.0 | 4.0 | 0.00 | 0.00 | 0.00 | 81 | 1014.7 |
| 20260906041552 | 61 | 84 | 2.0 | 5.0 | 0.00 | 0.00 | 0.00 | 80 | 1014.7 |
| 20260906041041 | 61 | 84 | 2.0 | 5.0 | 0.00 | 0.00 | 0.00 | 80 | 1014.7 |
| 20260906040541 | 61 | 97 | 2.0 | 5.0 | 0.00 | 0.00 | 0.00 | 80 | 1014.7 |
| 20260906040142 | 61 | 95 | 2.0 | 6.0 | 0.00 | 0.00 | 0.00 | 80 | 1014.8 |
| 20260906035541 | 61 | 84 | 2.0 | 6.0 | 0.00 | 0.00 | 0.00 | 79 | 1014.8 |
| 20260906035039 | 61 | 41 | 0.0 | 2.0 | 0.00 | 0.00 | 0.00 | 79 | 1014.8 |
| 20260906034544 | 61 | 130 | 0.0 | 2.0 | 0.00 | 0.00 | 0.00 | 78 | 1014.7 |
| 20260906034038 | 61 | 130 | 0.0 | 2.0 | 0.00 | 0.00 | 0.00 | 78 | 1014.6 |
| 20260906033540 | 61 | 84 | 0.0 | 3.0 | 0.00 | 0.00 | 0.00 | 78 | 1014.6 |
| 20260906033044 | 61 | 112 | 1.0 | 3.0 | 0.00 | 0.00 | 0.00 | 78 | 1014.6 |
| 20260906032536 | 61 | 84 | 0.0 | 2.0 | 0.00 | 0.00 | 0.00 | 78 | 1014.7 |
| 20260906032036 | 61 | 84 | 0.0 | 1.0 | 0.00 | 0.00 | 0.00 | 77 | 1014.8 |
| 20260906031539 | 62 | 41 | 0.0 | 1.0 | 0.00 | 0.00 | 0.00 | 77 | 1014.7 |
| 20260906031035 | 62 | 84 | 0.0 | 1.0 | 0.00 | 0.00 | 0.00 | 77 | 1014.7 |
| 20260906030534 | 62 | 41 | 0.0 | 1.0 | 0.00 | 0.00 | 0.00 | 76 | 1014.7 |
| 20260906030039 | 62 | 41 | 0.0 | 1.0 | 0.00 | 0.00 | 0.00 | 76 | 1014.7 |
| 20260906025531 | 62 | 264 | 0.0 | 1.0 | 0.00 | 0.00 | 0.00 | 76 | 1014.7 |
| 20260906025031 | 62 | 356 | 0.0 | 1.0 | 0.00 | 0.00 | 0.00 | 75 | 1014.6 |
| 20260906024529 | 62 | 356 | 0.0 | 2.0 | 0.00 | 0.00 | 0.00 | 76 | 1014.5 |
| 20260906024029 | 63 | 309 | 0.0 | 2.0 | 0.00 | 0.00 | 0.00 | 75 | 1014.4 |
| 20260906023528 | 63 | 173 | 0.0 | 1.0 | 0.00 | 0.00 | 0.00 | 75 | 1014.5 |
| 20260906023028 | 63 | 130 | 0.0 | 1.0 | 0.00 | 0.00 | 0.00 | 75 | 1014.4 |
| 20260906022528 | 63 | 84 | 0.0 | 1.0 | 0.00 | 0.00 | 0.00 | 75 | 1014.4 |
| 20260906022027 | 63 | 356 | 0.0 | 2.0 | 0.00 | 0.00 | 0.00 | 74 | 1014.4 |
| 20260906021527 | 63 | 356 | 0.0 | 2.0 | 0.00 | 0.00 | 0.00 | 74 | 1014.2 |
| 20260906021026 | 64 | 84 | 0.0 | 2.0 | 0.00 | 0.00 | 0.00 | 73 | 1014.2 |
| 20260906020525 | 64 | 84 | 0.0 | 2.0 | 0.00 | 0.00 | 0.00 | 73 | 1014.2 |
| 20260906020025 | 64 | 58 | 0.0 | 2.0 | 0.00 | 0.00 | 0.00 | 73 | 1014.2 |
| 20260906015524 | 64 | 84 | 0.0 | 2.0 | 0.00 | 0.00 | 0.00 | 72 | 1014.3 |
| 20260906015023 | 64 | 356 | 0.0 | 2.0 | 0.00 | 0.00 | 0.00 | 72 | 1014.2 |
| 20260906014538 | 65 | 147 | 0.0 | 2.0 | 0.00 | 0.00 | 0.00 | 72 | 1014.0 |
| 20260906014020 | 65 | 41 | 0.0 | 2.0 | 0.00 | 0.00 | 0.00 | 71 | 1014.0 |
| 20260906013526 | 65 | 356 | 0.0 | 3.0 | 0.00 | 0.00 | 0.00 | 71 | 1014.0 |
| 20260906013023 | 65 | 356 | 1.0 | 4.0 | 0.00 | 0.00 | 0.00 | 71 | 1014.0 |
| 20260906012520 | 65 | 108 | 1.0 | 3.0 | 0.00 | 0.00 | 0.00 | 71 | 1014.0 |
| 20260906012017 | 66 | 93 | 1.0 | 4.0 | 0.00 | 0.00 | 0.00 | 70 | 1014.0 |
| 20260906011516 | 66 | 84 | 1.0 | 4.0 | 0.00 | 0.00 | 0.00 | 70 | 1014.0 |
| 20260906011014 | 66 | 84 | 2.0 | 5.0 | 0.00 | 0.00 | 0.00 | 70 | 1013.9 |
| 20260906010516 | 66 | 103 | 2.0 | 6.0 | 0.00 | 0.00 | 0.00 | 70 | 1013.8 |
| 20260906010034 | 67 | 84 | 1.0 | 6.0 | 0.00 | 0.00 | 0.00 | 69 | 1013.7 |
| 20260906005512 | 67 | 84 | 1.0 | 4.0 | 0.00 | 0.00 | 0.00 | 69 | 1013.7 |
| 20260906005016 | 67 | 41 | 0.0 | 3.0 | 0.00 | 0.00 | 0.00 | 68 | 1013.6 |
| 20260906004511 | 67 | 30 | 1.0 | 4.0 | 0.00 | 0.00 | 0.00 | 68 | 1013.6 |
| 20260906004010 | 68 | 41 | 0.0 | 6.0 | 0.00 | 0.00 | 0.00 | 67 | 1013.7 |
| 20260906003510 | 68 | 77 | 3.0 | 6.0 | 0.00 | 0.00 | 0.00 | 67 | 1013.6 |
| 20260906003010 | 68 | 78 | 3.0 | 4.0 | 0.00 | 0.00 | 0.00 | 66 | 1013.7 |
| 20260906002509 | 69 | 74 | 1.0 | 3.0 | 0.00 | 0.00 | 0.00 | 66 | 1013.7 |
| 20260906002009 | 69 | 41 | 1.0 | 5.0 | 0.00 | 0.00 | 0.00 | 65 | 1013.6 |
| 20260906001509 | 69 | 84 | 1.0 | 5.0 | 0.00 | 0.00 | 0.00 | 65 | 1013.5 |
| 20260906001013 | 69 | 84 | 1.0 | 4.0 | 0.00 | 0.00 | 0.00 | 65 | 1013.5 |
| 20260906000509 | 69 | 58 | 1.0 | 4.0 | 0.00 | 0.00 | 0.00 | 64 | 1013.5 |
| 20260906000009 | 70 | 35 | 1.0 | 4.0 | 0.00 | 0.00 | 0.00 | 64 | 1013.4 |
| 20260905235508 | 70 | 34 | 2.0 | 5.0 | 0.00 | 0.00 | 0.00 | 64 | 1013.2 |
| 20260905235011 | 70 | 18 | 2.0 | 6.0 | 0.00 | 0.00 | 0.00 | 63 | 1013.2 |
| 20260905234507 | 70 | 48 | 3.0 | 8.0 | 0.00 | 0.00 | 0.00 | 63 | 1013.2 |
| 20260905234013 | 70 | 67 | 2.0 | 8.0 | 0.00 | 0.00 | 0.00 | 63 | 1013.2 |
| 20260905233510 | 70 | 15 | 3.0 | 6.0 | 0.00 | 0.00 | 0.00 | 63 | 1013.3 |
| 20260905233007 | 70 | 67 | 2.0 | 8.0 | 0.00 | 0.00 | 0.00 | 63 | 1013.3 |
| 20260905232510 | 71 | 356 | 3.0 | 8.0 | 0.00 | 0.00 | 0.00 | 63 | 1013.4 |
| 20260905232007 | 71 | 27 | 3.0 | 8.0 | 0.00 | 0.00 | 0.00 | 62 | 1013.2 |
| 20260905231507 | 71 | 36 | 2.0 | 10.0 | 0.00 | 0.00 | 0.00 | 62 | 1013.1 |
| 20260905231008 | 71 | 25 | 5.0 | 10.0 | 0.00 | 0.00 | 0.00 | 62 | 1013.1 |
| 20260905230507 | 71 | 347 | 5.0 | 12.0 | 0.00 | 0.00 | 0.00 | 63 | 1013.1 |
| 20260905230005 | 71 | 15 | 5.0 | 12.0 | 0.00 | 0.00 | 0.00 | 64 | 1013.1 |
| 20260905225504 | 71 | 20 | 3.0 | 9.0 | 0.00 | 0.00 | 0.00 | 66 | 1013.1 |
| 20260905225003 | 71 | 9 | 4.0 | 13.0 | 0.00 | 0.00 | 0.00 | 66 | 1013.1 |
| 20260905224503 | 72 | 18 | 5.0 | 13.0 | 0.00 | 0.00 | 0.00 | 67 | 1013.0 |
| 20260905224005 | 72 | 356 | 5.0 | 13.0 | 0.00 | 0.00 | 0.00 | 68 | 1013.0 |
| 20260905223502 | 72 | 4 | 5.0 | 13.0 | 0.00 | 0.00 | 0.00 | 68 | 1013.0 |
| 20260905223011 | 72 | 34 | 5.0 | 11.0 | 0.00 | 0.00 | 0.00 | 68 | 1013.0 |
| 20260905222502 | 72 | 4 | 6.0 | 11.0 | 0.00 | 0.00 | 0.00 | 68 | 1012.9 |
| 20260905222001 | 72 | 27 | 5.0 | 14.0 | 0.00 | 0.00 | 0.00 | 68 | 1012.8 |
| 20260905221501 | 72 | 18 | 8.0 | 14.0 | 0.00 | 0.00 | 0.00 | 68 | 1012.8 |
| 20260905221001 | 72 | 16 | 6.0 | 14.0 | 0.00 | 0.00 | 0.00 | 68 | 1012.6 |
| 20260905220601 | 73 | 25 | 7.0 | 14.0 | 0.00 | 0.00 | 0.00 | 68 | 1012.6 |
| 20260905220001 | 73 | 22 | 7.0 | 17.0 | 0.00 | 0.00 | 0.00 | 68 | 1012.6 |
| 20260905215604 | 73 | 15 | 9.0 | 17.0 | 0.00 | 0.00 | 0.00 | 68 | 1012.6 |
| 20260905215059 | 73 | 18 | 5.0 | 15.0 | 0.00 | 0.00 | 0.00 | 69 | 1012.5 |
| 20260905214559 | 73 | 338 | 6.0 | 18.0 | 0.00 | 0.00 | 0.00 | 68 | 1012.4 |
| 20260905214100 | 73 | 327 | 11.0 | 18.0 | 0.00 | 0.00 | 0.00 | 68 | 1012.5 |
| 20260905213558 | 74 | 20 | 10.0 | 18.0 | 0.00 | 0.00 | 0.00 | 68 | 1012.4 |
| 20260905213100 | 74 | 4 | 6.0 | 15.0 | 0.00 | 0.00 | 0.00 | 68 | 1012.3 |
| 20260905212558 | 74 | 13 | 9.0 | 15.0 | 0.00 | 0.00 | 0.00 | 68 | 1012.4 |
| 20260905212057 | 74 | 3 | 10.0 | 16.0 | 0.00 | 0.00 | 0.00 | 68 | 1012.3 |
| 20260905211559 | 75 | 8 | 9.0 | 17.0 | 0.00 | 0.00 | 0.00 | 69 | 1012.3 |
| 20260905211100 | 75 | 27 | 11.0 | 19.0 | 0.00 | 0.00 | 0.00 | 68 | 1012.2 |
| 20260905210600 | 75 | 41 | 7.0 | 19.0 | 0.00 | 0.00 | 0.00 | 69 | 1012.3 |
| 20260905210059 | 75 | 343 | 11.0 | 18.0 | 0.00 | 0.00 | 0.00 | 69 | 1012.3 |
| 20260905205555 | 75 | 6 | 9.0 | 16.0 | 0.00 | 0.00 | 0.00 | 70 | 1012.3 |
| 20260905205059 | 74 | 39 | 8.0 | 17.0 | 0.00 | 0.00 | 0.00 | 70 | 1012.3 |
| 20260905204559 | 74 | 359 | 10.0 | 17.0 | 0.00 | 0.00 | 0.00 | 70 | 1012.2 |
| 20260905204057 | 74 | 8 | 7.0 | 13.0 | 0.00 | 0.00 | 0.00 | 71 | 1012.3 |
| 20260905203553 | 74 | 44 | 8.0 | 13.0 | 0.00 | 0.00 | 0.00 | 70 | 1012.3 |
| 20260905203100 | 75 | 39 | 8.0 | 15.0 | 0.00 | 0.00 | 0.00 | 70 | 1012.4 |
| 20260905202654 | 75 | 359 | 8.0 | 15.0 | 0.00 | 0.00 | 0.00 | 70 | 1012.5 |
| 20260905202053 | 75 | 336 | 7.0 | 15.0 | 0.00 | 0.00 | 0.00 | 70 | 1012.5 |